Sokodé Airport

Jump to: basic info | weather | comments

Related pages: nearby airports | nearby navaids | notams | map

Basic information (top)

Codes: DXSK
Location: lon 8.983000, lat 1.150000, elev 1,214 ft / 370 m msl
Status: small_airport
Scheduled airline service: no
Links: Wikipedia Mobile

Weather (top)

Current conditions (rec'd 2015/01/31 12:00Z):

DXSK 311200Z 22002KT 8000 NSC 33/16 Q////

Airport forecast for Niamtougou International Airport 47nm (87km) N (rec'd 2015/01/31 18:27Z):

TAF DXNG 311716Z 3118/0118 VRB03KT CAVOK 
      BECMG 0102/0105 05010KT

Latest comments (top)

No comments yet for Sokodé Airport

More... (top)

See also NOTAMs and nearby airports and navaids, or visit the Sokodé Airport page at the main OurAirports website..